Location: Bessat
(45.8735°N, 1.9924°E)
Time: 22:29:52
(UTC+00:00)

Cosmos 2341 Rocket - Pass Details

Date: 11 May 2021
Orbit: 968 x 1004 km, 82.9° (Epoch: 23 June)

Event Time Altitude Azimuth Distance (km) Brightness Sun altitude
Rises 21:53:03 0° 354° (N) 3,743 8.2 -20.9°
Reaches altitude 10° 21:55:40 10° 359° (N) 2,790 7.3 -21.1°
Maximum altitude 22:01:57 55° 77° (ENE) 1,194 4.3 -21.6°
Enters shadow 22:04:05 39° 131° (SE) 1,470 4.4 -21.8°
